Location: ????
(32.1228°N, 34.8377°E)
Time: 01:33:00
(UTC+00:00)

ALOS - Pass Details

Date: 21 September 2020
Orbit: 683 x 686 km, 97.9° (Epoch: 21 October)

Event Time Altitude Azimuth Distance (km) Brightness Sun altitude
Rises 01:43:05 0° 22° (NNE) 3,048 6.2 -22.8°
Reaches altitude 10° 01:45:30 10° 31° (NNE) 2,129 5.4 -22.3°
Maximum altitude 01:49:47 36° 98° (E) 1,078 3.8 -21.5°
Drops below altitude 10° 01:54:02 10° 165° (SSE) 2,117 4.8 -20.6°
Sets 01:56:25 0° 174° (S) 3,028 5.5 -20.1°
